Location: Unspecified
(50.0000°N, 15.0000°E)
Time: 17:42:54
(UTC+02:00)

ISS - Visible Passes

Search period start: 17 September 2021 00:00
Search period end: 27 September 2021 00:00
Orbit: 419 x 423 km, 51.6° (Epoch: 17 September)

Date Brightness Start Highest point End Pass type
(mag) Time Alt. Az. Time Alt. Az. Time Alt. Az.
17 Sep -2.1 20:04:38 10° S 20:06:56 17° SE 20:08:02 15° ESE visible
17 Sep -1.5 21:40:00 10° WSW 21:41:04 19° WSW 21:41:04 19° WSW visible
18 Sep -3.6 20:53:13 10° SW 20:56:29 51° SSE 20:56:29 51° SSE visible
19 Sep -3.1 20:06:34 10° SW 20:09:41 36° SSE 20:11:43 18° E visible
19 Sep -1.8 21:43:02 10° W 21:44:44 27° W 21:44:44 27° W visible
20 Sep -3.9 20:56:08 10° WSW 20:59:30 90° NNW 20:59:50 71° ENE visible
21 Sep -3.8 20:09:15 10° WSW 20:12:37 72° SSE 20:14:51 19° ENE visible
21 Sep -1.6 21:46:11 10° W 21:47:51 26° WNW 21:47:51 26° WNW visible
22 Sep -3.6 20:59:13 10° W 21:02:35 67° N 21:02:46 65° NNE visible
23 Sep -3.7 20:12:16 10° W 20:15:38 75° N 20:17:39 22° ENE visible
23 Sep -1.3 21:49:17 10° WNW 21:50:39 22° WNW 21:50:39 22° WNW visible
24 Sep -3.7 19:25:19 10° WSW 19:28:42 88° NNW 19:32:05 10° ENE visible
24 Sep -3.4 21:02:20 10° W 21:05:29 62° NNW 21:05:29 62° NNW visible
25 Sep -3.5 20:15:23 10° W 20:18:44 63° N 20:20:19 28° ENE visible
25 Sep -1.0 21:52:18 10° WNW 21:53:18 18° WNW 21:53:18 18° WNW visible
26 Sep -3.5 19:28:24 10° W 19:31:45 66° N 19:35:08 10° ENE visible
26 Sep -3.1 21:05:23 10° WNW 21:08:06 55° WNW 21:08:06 55° WNW visible
